Starlink 30545

operational
NORAD ID: 58000 Int'l Des: 2023-153 Owner: SPXS Country: US Constellation: starlink
LEOCIRCULAR

Über Starlink 30545

Beschreibung wird geladen...

Live-Position

3D-Globus wird geladen...

Nächste Überflüge

Höhenverlauf

Altitude vs Time

uPlot chart will show altitude changes over time

Zweizeiliger Elementsatz

1 58000U 23153K 25352.50377836 .00000782 00000-0 72934-4 0 9999
2 58000 43.0023 149.9108 0001253 270.9744 89.0955 15.02528348122664
Epoch: 18. Dez. 2025 • Age: 13 hours

Aktueller Status

Höhe 564.3 km
Geschwindigkeit 7.58 km/s
Subsatellitenpunkt -23.81°S, 20.69°E
Startdatum 5. Okt. 2023
Alter 2.2 years
Typ internet

Technische Details

Klassifizierung Payload
Masse 730.00 kg
Trockenmasse 700.00 kg
Gesamtmasse 730.00 kg
Länge 0.30 m
Durchmesser 4.10 m
Spannweite 29.00 m
Form Box + pan
Hersteller SPXS
Bus-Typ Starlink V2M
Phasenstatus In Orbit
Besitzer/Staat SPXS/US

Große Konstellationen

Loading constellations...